Weather History for Joplin, MO

Change the Weather History Date:

Saturday, November 17, 2012

  Actual Average Record
Temperature  
Mean Temperature 48 °F 48 °F  
Max Temperature 62 °F 58 °F 77 °F (1954)
Min Temperature 34 °F 37 °F 8 °F (1959)
Degree Days  
Heating Degree Days 17 17  
Month to date heating degree days 245 237  
Since 1 July heating degree days 569 489  
Cooling Degree Days 0 0  
Month to date cooling degree days 4 5  
Year to date cooling degree days 2106 1696  
Moisture  
Dew Point 29 °F    
Average Humidity 48    
Maximum Humidity 76    
Minimum Humidity 28    
Precipitation  
Precipitation 0.00 in 0.13 in 1.50 in (1971)
Month to date precipitation 1.13 2.23  
Year to date precipitation 36.78 42.18  
Snow  
Snow 0.00 in - - ()
Month to date snowfall 0.0  
Snow Depth 0.00 in    
Sea Level Pressure  
Sea Level Pressure 30.37 in    
Wind  
Wind Speed 7 mph (SSE)    
Max Wind Speed 16 mph    
Max Gust Speed 18 mph    
Visibility 10 miles    
Events      
T = Trace of Precipitation, MM = Missing Value Source: NWS Daily Summary

Daily Weather History Graph

Daily Weather History Graph

Search for Another Location

Airport:

Trip Planner

Search our weather history database for the weather conditions in past years. The results will help you decide how hot, cold, wet, or windy it might be!

Date:

Astronomy

Nov. 17, 2012 Rise Set
Actual Time 6:59 AM CST 5:06 PM CST
Civil Twilight 6:31 AM CST 5:34 PM CST
Nautical Twilight 6:00 AM CST 6:05 PM CST
Astronomical Twilight 5:29 AM CST 6:36 PM CST
Moon 10:44 AM CST (11/17) 9:16 PM CST (11/17)
Length of Visible Light 11h 02m
Length of Day
10h 06m
Waxing Crescent, 20% of the Moon is Illuminated
Nov 17
Waxing Crescent
Nov 20
First Quarter
Nov 28
Full
Dec 6
Last Quarter
Dec 13
New

Hourly Weather History & Observations

Time (CST) Temp. Windchill Dew Point Humidity Pressure Visibility Wind Dir Wind Speed Gust Speed Precip Events Conditions
12:53 AM 46.9 °F - 28.9 °F 50% 30.39 in 10.0 mi SE 8.1 mph - N/A   Clear
1:53 AM 46.0 °F 42.5 °F 28.9 °F 51% 30.38 in 10.0 mi SSE 6.9 mph - N/A   Clear
2:53 AM 42.1 °F 38.4 °F 28.9 °F 60% 30.39 in 10.0 mi SSE 5.8 mph - N/A   Clear
3:53 AM 41.0 °F 37.1 °F 28.9 °F 62% 30.39 in 10.0 mi SSE 5.8 mph - N/A   Clear
4:53 AM 39.0 °F 36.8 °F 28.0 °F 65% 30.39 in 10.0 mi SSE 3.5 mph - N/A   Clear
5:53 AM 39.0 °F - 28.0 °F 65% 30.40 in 10.0 mi Calm Calm - N/A   Clear
6:53 AM 35.1 °F 31.0 °F 28.0 °F 76% 30.43 in 10.0 mi SE 4.6 mph - N/A   Clear
7:53 AM 39.0 °F 34.8 °F 28.9 °F 67% 30.44 in 10.0 mi SE 5.8 mph - N/A   Clear
8:53 AM 45.0 °F 41.8 °F 30.9 °F 58% 30.44 in 10.0 mi South 5.8 mph - N/A   Clear
9:53 AM 51.1 °F - 30.9 °F 46% 30.44 in 10.0 mi SSE 6.9 mph - N/A   Clear
10:53 AM 55.0 °F - 30.0 °F 38% 30.43 in 10.0 mi South 10.4 mph - N/A   Clear
11:53 AM 59.0 °F - 26.1 °F 28% 30.40 in 10.0 mi South 10.4 mph - N/A   Clear
12:53 PM 60.1 °F - 27.0 °F 28% 30.37 in 10.0 mi South 9.2 mph - N/A   Clear
1:53 PM 62.1 °F - 28.9 °F 29% 30.34 in 10.0 mi SSE 10.4 mph 18.4 mph N/A   Clear
2:53 PM 62.1 °F - 30.9 °F 31% 30.32 in 10.0 mi South 6.9 mph - N/A   Clear
3:53 PM 61.0 °F - 30.0 °F 31% 30.31 in 10.0 mi South 11.5 mph - N/A   Clear
4:53 PM 55.0 °F - 30.9 °F 40% 30.30 in 10.0 mi South 9.2 mph - N/A   Clear
5:53 PM 55.0 °F - 28.9 °F 37% 30.32 in 10.0 mi South 4.6 mph - N/A   Clear
6:53 PM 48.9 °F - 30.0 °F 48% 30.33 in 10.0 mi SE 3.5 mph - N/A   Clear
7:53 PM 50.0 °F - 30.0 °F 46% 30.32 in 10.0 mi SE 4.6 mph - N/A   Clear
8:53 PM 48.0 °F - 30.0 °F 50% 30.32 in 10.0 mi SE 6.9 mph - N/A   Clear
9:53 PM 48.0 °F - 28.9 °F 48% 30.30 in 10.0 mi SE 6.9 mph - N/A   Clear
10:53 PM 46.9 °F - 28.9 °F 50% 30.32 in 10.0 mi SE 5.8 mph - N/A   Clear
11:53 PM 43.0 °F 39.5 °F 28.9 °F 58% 30.33 in 10.0 mi SE 5.8 mph - N/A   Clear